Regional Weather Roundup
Issued by NWS

Home | Current Version | Previous Version | Text Only | Print | Product List | Glossary Off
Versions: 1 2 3 4 5 6 7 8 9 10 11 12 13 14 15 16 17 18 19 20 21 22 23 24 25 26 27

000
ASUS45 KBOU 280110
RWRCO

WEATHER ROUNDUP FOR COLORADO
NATIONAL WEATHER SERVICE DENVER/BOULDER CO
700 PM MDT TUE SEP 27 2016

NOTE: "FAIR" INDICATES FEW OR NO CLOUDS BELOW 12000 FEET WITH NO
SIGNIFICANT WEATHER AND/OR OBSTRUCTIONS TO VISIBILITY.

COZ001>005-013-030-031-280200-
...NORTHWEST COLORADO...

CITY           SKY/WX    TMP DP  RH WIND       PRES   REMARKS
CRAIG          FAIR      62  35  36 W5        30.22R
HAYDEN         FAIR      66  30  26 W5        30.24R
MEEKER         FAIR      67  33  28 NW7       30.22R
MOUNT WERNER   NOT AVBL
STEAMBOAT SPGS FAIR      66  31  27 CALM      30.25R
WALDEN           N/A     59  27  29 N10       30.34R
$$

COZ006>008-011-280200-
...WEST CENTRAL VALLEYS...

CITY           SKY/WX    TMP DP  RH WIND       PRES   REMARKS
GRAND JUNCTION FAIR      74  35  24 NW9       30.11S
MONTROSE       FAIR      70  36  28 NW6       30.18R
EAGLE          CLEAR     75  28  17 W8        30.20S
RIFLE          FAIR      72  33  24 W10       30.14R
DELTA          NOT AVBL
NUCLA          FAIR      73  32  21 NW6       30.21R
$$

COZ017>023-064>068-280200-
...SOUTHWEST COLORADO...

CITY           SKY/WX    TMP DP  RH WIND       PRES   REMARKS
DURANGO        FAIR      66  25  21 SW8       30.25R
CORTEZ         FAIR      66  38  35 SW6       30.20S
PAGOSA SPRINGS FAIR      64  25  22 W3        30.31R
TELLURIDE      CLOUDY    62  33  32 W5        30.41R
WOLF CREEK PAS FAIR      45  28  53 SW15G22   30.60S
$$

COZ009-010-012-014-032>034-037-058>063-280200-
...CENTRAL COLORADO...

CITY           SKY/WX    TMP DP  RH WIND       PRES   REMARKS
ASPEN          FAIR      63  28  26 CALM      30.28R
BUENA VISTA    FAIR      60  26  27 CALM      30.27R
COPPER MTN     FAIR      54  14  20 NW14      30.59S
BERTHOUD PASS  FAIR      43  30  61 MISG      30.64R
COTTONWOOD PAS FAIR      64  19  17 W5        30.42R
GUNNISON       FAIR      66  31  27 W6        30.26S
KREMMLING      FAIR      70  18  13 NW8       30.27R
LEADVILLE      MOCLDY    59  18  20 NW9       30.41R
MONARCH PASS   MOCLDY    54  23  30 W13       30.69R
SALIDA         FAIR      71  28  20 CALM      30.31R
SUNLIGHT       FAIR      54  28  37 W5        30.54S
WILKERSON PASS FAIR      50  21  32 E10G17    30.57R
$$

COZ069>075-280200-
...SAN LUIS VALLEY/SANGRE DE CRISTO MOUNTAINS...

CITY           SKY/WX    TMP DP  RH WIND       PRES   REMARKS
ALAMOSA        FAIR      64  26  23 W7        30.26S
LA VETA PASS   FAIR      54  30  40 MISG      30.46S
SAGUACHE       NOT AVBL
$$

COZ035-036-038>040-280200-
...NORTHERN COLORADO FRONT RANGE...

CITY           SKY/WX    TMP DP  RH WIND       PRES   REMARKS
DENVER INTL AP FAIR      73  22  14 N5        30.15R
DMNS CITY PARK   N/A     69  29  22 N1        30.14R
AURORA         PTCLDY    72  24  16 NE1       30.17R
FRONT RANGE AP PTCLDY    77  19  11 N6        30.16
ERIE MUNI ARPT FAIR      70  29  21 CALM      30.13S
BOULDER MUN AP FAIR      72  34  25 CALM      30.14R
CENTENNIAL     FAIR      73  24  16 N7        30.17R
BROOMFIELD     PTCLDY    77  23  13 CALM      30.17
FORT COLLINS   FAIR      73  32  21 S3        30.09S
LONGMONT       FAIR      72  35  25 CALM      30.14S
$$

COZ041-046-047-076>085-087-088-280200-
...PIKES PEAK/PALMER DIVIDE AND SOUTHERN FOOTHILLS...

CITY           SKY/WX    TMP DP  RH WIND       PRES   REMARKS
COLO. SPRINGS  FAIR      71  29  21 SE6       30.20S
A. F. ACADEMY  FAIR      68  30  23 SW3       30.22R
SCHRIEVER AFB  NOT AVBL
ELLICOTT       NOT AVBL
FALCON         FAIR      64  30  28 SW3       30.25S
FORT CARSON    FAIR      71  30  22 E6        30.16S
LIMON          FAIR      60  22  23 N7        30.13S
MONUMENT HILL  FAIR      64  23  20 E3        30.27R
TRINIDAD       FAIR      73  31  21 SE7       30.16R
$$

COZ042>045-048>051-090-091-280200-
...NORTHEAST COLORADO...

CITY           SKY/WX    TMP DP  RH WIND       PRES   REMARKS
GREELEY ARPT   FAIR      72  36  26 CALM      30.10S
AKRON          FAIR      73  24  16 CALM      30.10R
BURLINGTON     FAIR      71  35  26 S7        30.06S
WRAY           FAIR      70  32  24 N6        30.03S
STERLING       FAIR      73  36  25 CALM      30.04S
HOLYOKE        FAIR      64  43  45 NW3       30.04S
FORT MORGAN    FAIR      71  24  17 SE5       30.09S
$$

COZ086-089-092>099-280200-
...SOUTHEAST COLORADO...

CITY           SKY/WX    TMP DP  RH WIND       PRES   REMARKS
PUEBLO         FAIR      78  35  21 SE8       30.08R
LA JUNTA       FAIR      75  34  22 E8        30.06S
LAMAR          FAIR      71  39  31 E7        30.03S
SPRINGFIELD    NOT AVBL
$$




USA.gov is the U.S. government's official web portal to all federal, state and local government web resources and services.